Find Starlink 31506

NORAD ID: 59259 Int'l Des: 2024-050 Owner: SPXS Country: US Constellation: starlink operational
LEOCIRCULAR

Current View

Loading 3D Globe...

About Starlink 31506

Starlink 31506 (NORAD 59259) is a starlink constellation satellite (v2 mini) launched Mar 19, 2024 by SPXS of US. It operates in LEO, CIRCULAR orbit with a mass of 730.00 kg.

About Starlink 31506

Description loading...

Upcoming Passes

Passes for default location (London). Set your location on the main map for personalized predictions.

Altitude History

Loading altitude history...

Two-Line Element Set

1 59259U 24050F 26177.86421238 -.00001409 00000-0 -35480-4 0 9998
2 59259 53.1593 33.8929 0001368 92.7547 267.3610 15.30176105127266
Epoch: Jun 26, 2026 • Age: 17 hours

Current Status

Altitude 477.7 km
Velocity 7.63 km/s
Sub-Earth Point 37.66°N, 63.08°W
Launch Date Mar 19, 2024
Age 2.2 years
Type internet

Technical Details

Classification Payload
Mass 730.00 kg
Dry Mass 700.00 kg
Total Mass 730.00 kg
Length 0.30 m
Diameter 4.10 m
Span 29.00 m
Shape Box + pan
Manufacturer SPXS
Bus Type Starlink V2M
Phase Status In Orbit
Owner/State SPXS/US

Most Searched